{"data":{"norad_id":54096,"epoch":"2026-09-20T22:00:03.000096Z","epoch_age_seconds":53148,"freshness":"FRESH","line1":"1 54096U 22136AX  26263.91670139  .00009631  00000+0  41134-3 0  9997","line2":"2 54096  53.1597 175.9205 0001041  69.5792 263.4515 15.23532484  5704","mean_motion":15.23532484,"eccentricity":0.0001041,"inclination_deg":53.1597,"raan_deg":175.9205,"arg_perigee_deg":69.5792,"mean_anomaly_deg":263.4515,"bstar":0.00041134,"rev_number":570,"period_min":94.517183921101,"perigee_km":494.48012488707,"apogee_km":495.91115274247,"semimajor_km":6873.3326388148,"source":"CELESTRAK","updated_at":"2026-09-21T09:00:33.084602Z"}}